Airfield :
LOGIN :

Register | Disclaimer

   EN    FR    IT 

 










Legend :    VFR   Marginal VFR   IFR   Intensive IFR   Very Intensive IFR
Visi :
Ceiling :
>= 8 km
>= 3000ft
5 to 8 km
1000 to 3000 ft
1500m to 5 km
500 to 1000 ft
800 to 1500m
200 to 500 ft
< 800m
< 200 ft
Symbols :   Thunderstorms  Fog  Heavy snow  Heavy precipitations  Wind > 20 kt
SIGMETs :     Misc.  Thunderstorms  Icing  Turbulence  Mountain Waves  Volcanic Ashes






- Airport Elevation : 522 ft
- IATA code : CRV


LIBC - Santa Anna - Crotone

CURRENT METAR :
  • 191450Z 03009KT CAVOK 17/09 Q1022

EXPIRED METARs :
  • 191350Z 05009KT 010V070 CAVOK 18/10 Q1022
  • 191250Z 03011KT 010V070 CAVOK 18/10 Q1022

TAF TAF LIBC
Valid from the 19 at 12:00 until the 20 at 12:00 UTC


191100Z 1912/2012 01010KT 9999 FEW030
TEMPO 1912/1915 SHRA



MET'MAP, your aeronautical weather chart ! - Copyright ORBIFLY December 2007 - Disclaimer

ORBIFLY MET'MAP TEAM :

Programming & Development : Alexandra Zaïnal
Concept & original design : Baudouin d'Aumeries
Assistance for programming : Marc-Olivier Méhu
Technical & hardware support : Manuel Goepfert

Contact : metmap@orbifly.com




SOURCES & CREDITS :

   NOAA